Back to catalog

COSMOS 1823 DEB

AliveLEO
NORAD 18727·DEBRIS·🇷🇺 Russia

Launched Feb 20, 1987 from Plesetsk Cosmodrome

Loading…

Next Passes (next 24 hours)

TLE

FreshSource: Space-Track

Epoch: Sep 14, 2026, 09:55 UTC

1 18727U 87020E   26257.41362589  .00000027  00000-0  24603-3 0  9999
2 18727  73.3562 245.8371 0087543 162.2208 271.5624 12.65208653788111

Track COSMOS 1823 DEB in real time with AllMySat

Download on the App Store